This is the latest recevied weather packets stored in our database for station/object AD8IZ-13. If no packets are shown the sender has not sent any weather packets the latest 10 day(s).
| Time | Temp. | Humidity | Pressure | Rain* | Wind** | Luminosity | Snow |
|---|---|---|---|---|---|---|---|
| 1777627523 | 3.89° C | 98% | 1013.1 hPa | 0 mm | - | 0 W/m² | - |
| 1777626917 | 3.89° C | 98% | 1013.1 hPa | 0 mm | - | 0 W/m² | - |
| 1777626316 | 3.89° C | 98% | 1013.3 hPa | 0 mm | - | 0 W/m² | - |
| 1777625719 | 3.89° C | 98% | 1013.3 hPa | 0 mm | - | 0 W/m² | - |
| 1777625121 | 4.44° C | 98% | 1013.4 hPa | 0 mm | - | 0 W/m² | - |
| 1777624517 | 3.89° C | 98% | 1013.4 hPa | 0 mm | - | 0 W/m² | - |
| 1777623918 | 3.89° C | 98% | 1013.4 hPa | 0 mm | - | 0 W/m² | - |
| 1777623318 | 3.89° C | 98% | 1013.5 hPa | 0 mm | - | 0 W/m² | - |
| 1777622717 | 3.33° C | 98% | 1013.6 hPa | 0 mm | - | 0 W/m² | - |
| 1777622117 | 3.33° C | 98% | 1013.7 hPa | 0 mm | - | 0 W/m² | - |
| 1777621518 | 2.78° C | 98% | 1013.6 hPa | 0 mm | - | 0 W/m² | - |
| 1777620918 | 2.78° C | 98% | 1013.6 hPa | 0 mm | - | 0 W/m² | - |
| 1777620319 | 2.78° C | 98% | 1013.7 hPa | 0 mm | - | 0 W/m² | - |
| 1777619718 | 2.78° C | 98% | 1013.8 hPa | 0 mm | - | 0 W/m² | - |
| 1777619118 | 2.78° C | 98% | 1013.8 hPa | 0 mm | - | 0 W/m² | - |
| 1777618519 | 2.78° C | 98% | 1014 hPa | 0 mm | - | 0 W/m² | - |
| 1777617919 | 2.78° C | 98% | 1014 hPa | 0 mm | - | 0 W/m² | - |
| 1777617320 | 2.78° C | 98% | 1014.4 hPa | 0 mm | - | 0 W/m² | - |
| 1777616719 | 2.78° C | 98% | 1014.5 hPa | 0 mm | - | 0 W/m² | - |
| 1777616119 | 2.78° C | 98% | 1014.6 hPa | 0 mm | - | 0 W/m² | - |
| 1777615519 | 2.78° C | 98% | 1014.6 hPa | 0 mm | - | 0 W/m² | - |
| 1777614920 | 2.22° C | 97% | 1014.6 hPa | 0 mm | - | 0 W/m² | - |
| 1777614317 | 2.78° C | 97% | 1014.7 hPa | 0 mm | - | 0 W/m² | - |
| 1777613717 | 2.78° C | 97% | 1014.7 hPa | 0 mm | - | 0 W/m² | - |
| 1777613120 | 2.78° C | 97% | 1014.8 hPa | 0 mm | - | 0 W/m² | - |
* Rain latest hour (hover to see other rain measurements)
** Current wind speed in m/s (hover to see current wind gust speed)